Regional Weather Roundup
Issued by NWS

Home | Current Version | Previous Version | Graphics & Text | Print | Product List | Glossary On
Versions: 1 2 3 4 5 6 7 8 9 10 11 12 13 14 15 16 17 18 19 20 21 22 23 24 25 26 27 28 29 30 31 32 33 34 35 36 37 38 39 40 41 42 43 44 45 46 47 48 49 50
000
ASUS44 KMEG 222300
RWRTN
TENNESSEE HOURLY STATE WEATHER ROUNDUP
NATIONAL WEATHER SERVICE MEMPHIS TN
600 PM CDT WED MAR 22 2017

TNZ002-004-019-021-049-052-054-088>092-230000-
WEST TENNESSEE

CITY           SKY/WX    TMP DP  RH WIND       PRES   REMARKS
MEMPHIS INTL   PTSUNNY   63  32  31 NE12      30.26R
NWS MEMPHIS      N/A     62 N/A N/A MISG        N/A
JACKSON        SUNNY     61  25  25 E7        30.28R
DYERSBURG      SUNNY     58  29  33 NE10      30.31R
PARIS          SUNNY     54  23  30 NE10      30.31R
$$

TNZ008-025-027-028-033-062-065-066-230000-
NORTH MIDDLE TENNESSEE

CITY           SKY/WX    TMP DP  RH WIND       PRES   REMARKS
NASHVILLE      PTSUNNY   55  18  23 NE12      30.30R
CLARKSVILLE    SUNNY     54  18  24 E13       30.32R
SMYRNA         MOSUNNY   56  19  23 N14       30.30R
CROSSVILLE     SUNNY     53  17  24 N10       30.26R
$$

TNZ061-075-076-078-094-096-097-230000-
SOUTH MIDDLE TENNESSEE

CITY           SKY/WX    TMP DP  RH WIND       PRES   REMARKS
TULLAHOMA      SUNNY     55   9  15 NE7       30.26S
WINCHESTER     SUNNY     55  23  28 N12       30.25R
MCMINNVILLE    SUNNY     54  16  22 N12       30.27R
COLUMBIA       SUNNY     57  23  26 NE10      30.27R
SHELBYVILLE    SUNNY     57  27  30 N8        30.28R
$$

TNZ017-018-042-046-047-230000-
NORTHEAST TENNESSEE

CITY           SKY/WX    TMP DP  RH WIND       PRES   REMARKS
TRI CITIES     PTCLDY    52  16  24 N6        30.28R
$$

TNZ012-013-036-069-073-074-230000-
CENTRAL EAST TENNESSEE

CITY           SKY/WX    TMP DP  RH WIND       PRES   REMARKS
KNOXVILLE      MOCLDY    58  18  21 N10       30.25R
OAK RIDGE      PTCLDY    58  17  20 VRB3      30.28R
GATLINBURG     CLEAR     55  19  24 VRB3      30.25R
$$

TNZ083-085-099-230000-
SOUTHEAST TENNESSEE

CITY           SKY/WX    TMP DP  RH WIND       PRES   REMARKS
CHATTANOOGA    PTSUNNY   62  18  18 NE15      30.22S
$$

SKY/WX REPORTED AS FAIR MEANS FEW OR NO CLOUDS BELOW
12 THOUSAND FEET.





USA.gov is the U.S. government's official web portal to all federal, state and local government web resources and services.